Photometre #846[NE_1.6_Dp] Watnall_MO AOT

File : 20210607_846.hum

07/06/2021,04:55:03,TEMP=12.5,BA=5.56,STAT.A,ExtBa=13.00
07/06/2021,04:59:47,TEMP=12.6,BA=5.56,STAT.A,ExtBa=13.00
07/06/2021,05:05:16,TEMP=12.7,BA=5.32,STAT.A,ExtBa=12.90
07/06/2021,05:11:43,TEMP=12.9,BA=5.64,STAT.A,ExtBa=12.90
07/06/2021,05:19:23,TEMP=13.2,BA=5.64,STAT.A,ExtBa=12.90
07/06/2021,05:28:41,TEMP=13.3,BA=5.32,STAT.A,ExtBa=12.90
07/06/2021,05:40:16,TEMP=13.6,BA=5.52,STAT.B,ExtBa=12.90
07/06/2021,05:45:42,TEMP=13.9,BA=5.52,STAT.A,ExtBa=12.80
07/06/2021,05:51:45,TEMP=14.2,BA=5.68,STAT.A,ExtBa=12.90
07/06/2021,05:58:32,TEMP=14.6,BA=5.68,STAT.A,ExtBa=12.90
07/06/2021,06:06:05,TEMP=14.9,BA=5.36,STAT.A,ExtBa=12.90
07/06/2021,06:14:42,TEMP=14.8,BA=5.64,STAT.C,ExtBa=12.90
07/06/2021,06:24:33,TEMP=15.3,BA=5.64,STAT.A,ExtBa=12.90
07/06/2021,06:35:58,TEMP=15.7,BA=5.64,STAT.A,ExtBa=12.90
07/06/2021,06:48:23,TEMP=16.6,BA=5.68,STAT.D,ExtBa=12.90
07/06/2021,06:50:24,TEMP=17.2,BA=5.48,STAT.A,ExtBa=12.90
07/06/2021,07:03:23,TEMP=16.6,BA=5.64,STAT.D,ExtBa=12.90
07/06/2021,07:05:28,TEMP=17.3,BA=5.64,STAT.A,ExtBa=12.80
07/06/2021,07:18:23,TEMP=17.5,BA=5.68,STAT.D,ExtBa=12.90
07/06/2021,07:25:09,TEMP=17.8,BA=5.52,STAT.B,ExtBa=12.90
07/06/2021,07:36:23,TEMP=18.3,BA=5.64,STAT.D,ExtBa=12.90
07/06/2021,07:48:23,TEMP=19.2,BA=5.64,STAT.D,ExtBa=12.90
07/06/2021,08:00:24,TEMP=19.9,BA=5.64,STAT.D,ExtBa=12.90
07/06/2021,08:05:29,TEMP=20.5,BA=5.64,STAT.B,ExtBa=12.90
07/06/2021,08:18:24,TEMP=21.8,BA=5.68,STAT.D,ExtBa=13.00
07/06/2021,08:20:25,TEMP=22.5,BA=5.60,STAT.D,ExtBa=12.90
07/06/2021,08:33:24,TEMP=22.6,BA=5.68,STAT.D,ExtBa=13.10
07/06/2021,08:35:25,TEMP=23.1,BA=5.68,STAT.D,ExtBa=13.00
07/06/2021,08:48:24,TEMP=23.3,BA=5.68,STAT.D,ExtBa=13.10
07/06/2021,08:50:24,TEMP=23.7,BA=5.64,STAT.D,ExtBa=13.00
07/06/2021,09:03:24,TEMP=23.1,BA=5.68,STAT.D,ExtBa=13.00
07/06/2021,09:05:26,TEMP=23.5,BA=5.68,STAT.F,ExtBa=12.90
07/06/2021,09:18:24,TEMP=23.1,BA=5.68,STAT.D,ExtBa=13.10
07/06/2021,09:20:24,TEMP=23.6,BA=5.64,STAT.D,ExtBa=13.00
07/06/2021,09:33:24,TEMP=22.7,BA=5.68,STAT.D,ExtBa=13.10
07/06/2021,09:35:17,TEMP=23.2,BA=5.68,STAT.D,ExtBa=13.00
07/06/2021,09:48:24,TEMP=23.1,BA=5.68,STAT.D,ExtBa=13.10
07/06/2021,09:50:23,TEMP=23.5,BA=5.68,STAT.D,ExtBa=13.10
07/06/2021,10:03:24,TEMP=22.6,BA=5.68,STAT.D,ExtBa=13.30
07/06/2021,10:05:25,TEMP=23.1,BA=5.68,STAT.F,ExtBa=13.20
07/06/2021,10:09:24,TEMP=23.1,BA=5.68,STAT.D,ExtBa=13.10
07/06/2021,10:19:07,TEMP=22.6,BA=5.56,STAT.D,ExtBa=13.00
07/06/2021,10:30:24,TEMP=21.9,BA=5.68,STAT.D,ExtBa=13.00
07/06/2021,10:34:07,TEMP=21.8,BA=5.68,STAT.D,ExtBa=13.10
07/06/2021,10:45:24,TEMP=22.3,BA=5.68,STAT.D,ExtBa=13.50
07/06/2021,10:49:07,TEMP=22.9,BA=5.68,STAT.D,ExtBa=13.60
07/06/2021,11:00:25,TEMP=24.1,BA=5.68,STAT.D,ExtBa=13.70
07/06/2021,11:04:09,TEMP=24.4,BA=5.68,STAT.F,ExtBa=13.60
07/06/2021,11:15:25,TEMP=25.2,BA=5.68,STAT.D,ExtBa=13.80
07/06/2021,11:19:08,TEMP=25.4,BA=5.68,STAT.D,ExtBa=13.90
07/06/2021,11:30:25,TEMP=25.1,BA=5.68,STAT.D,ExtBa=13.70
07/06/2021,11:34:08,TEMP=25.1,BA=5.68,STAT.D,ExtBa=13.70
07/06/2021,11:45:25,TEMP=25.1,BA=5.68,STAT.D,ExtBa=13.90
07/06/2021,11:49:08,TEMP=25.3,BA=5.68,STAT.D,ExtBa=13.80
07/06/2021,12:00:25,TEMP=25.6,BA=5.68,STAT.D,ExtBa=14.20
07/06/2021,12:04:09,TEMP=26.0,BA=5.68,STAT.F,ExtBa=14.30
07/06/2021,12:15:25,TEMP=25.6,BA=5.68,STAT.D,ExtBa=13.60
07/06/2021,14:54:32,TEMP=24.1,BA=5.64,STAT.D,ExtBa=13.80
07/06/2021,15:04:08,TEMP=24.2,BA=5.68,STAT.F,ExtBa=13.60
07/06/2021,15:15:24,TEMP=23.9,BA=5.68,STAT.D,ExtBa=13.70
07/06/2021,15:19:07,TEMP=24.0,BA=5.68,STAT.D,ExtBa=13.60
07/06/2021,15:30:24,TEMP=23.6,BA=5.68,STAT.D,ExtBa=13.60
07/06/2021,15:34:07,TEMP=23.6,BA=5.68,STAT.D,ExtBa=13.60
07/06/2021,15:45:24,TEMP=23.8,BA=5.64,STAT.D,ExtBa=13.80
07/06/2021,15:49:07,TEMP=24.1,BA=5.64,STAT.D,ExtBa=13.70
07/06/2021,16:00:24,TEMP=24.0,BA=5.64,STAT.D,ExtBa=13.90
07/06/2021,16:02:47,TEMP=24.5,BA=5.64,STAT.B,ExtBa=13.90
07/06/2021,16:15:23,TEMP=24.7,BA=5.68,STAT.D,ExtBa=13.80
07/06/2021,16:27:23,TEMP=24.2,BA=5.68,STAT.D,ExtBa=13.60
07/06/2021,16:39:23,TEMP=23.9,BA=5.68,STAT.D,ExtBa=13.70
07/06/2021,16:43:07,TEMP=24.0,BA=5.64,STAT.B,ExtBa=13.60
07/06/2021,16:54:23,TEMP=23.5,BA=5.68,STAT.D,ExtBa=13.80
07/06/2021,17:02:49,TEMP=23.9,BA=5.64,STAT.A,ExtBa=13.80
07/06/2021,17:09:23,TEMP=24.1,BA=5.64,STAT.D,ExtBa=13.80
07/06/2021,17:18:54,TEMP=24.0,BA=5.52,STAT.A,ExtBa=13.60
07/06/2021,17:30:23,TEMP=23.3,BA=5.68,STAT.D,ExtBa=13.50
07/06/2021,17:32:26,TEMP=23.6,BA=5.68,STAT.A,ExtBa=13.30
07/06/2021,17:43:43,TEMP=22.3,BA=5.68,STAT.A,ExtBa=13.30
07/06/2021,17:53:33,TEMP=22.2,BA=5.68,STAT.C,ExtBa=13.40
07/06/2021,18:02:09,TEMP=22.5,BA=5.68,STAT.A,ExtBa=13.50
07/06/2021,18:09:44,TEMP=22.7,BA=5.68,STAT.A,ExtBa=13.40
07/06/2021,18:16:29,TEMP=23.0,BA=5.68,STAT.A,ExtBa=13.30
07/06/2021,18:22:32,TEMP=22.9,BA=5.68,STAT.A,ExtBa=13.20
07/06/2021,18:27:59,TEMP=22.5,BA=5.68,STAT.B,ExtBa=13.10
07/06/2021,18:39:23,TEMP=21.2,BA=5.64,STAT.D,ExtBa=13.10
07/06/2021,18:41:45,TEMP=21.5,BA=5.56,STAT.A,ExtBa=13.00
07/06/2021,18:48:53,TEMP=20.6,BA=5.56,STAT.A,ExtBa=13.10
07/06/2021,18:56:33,TEMP=20.3,BA=5.48,STAT.A,ExtBa=13.10
07/06/2021,19:03:00,TEMP=20.1,BA=5.64,STAT.A,ExtBa=13.10
07/06/2021,19:08:29,TEMP=20.0,BA=5.64,STAT.A,ExtBa=13.10
07/06/2021,19:13:13,TEMP=19.9,BA=5.28,STAT.A,ExtBa=13.00